DateTimeUTC,BaB_A11,BaG_A11,BaR_A11
2019-08-05 21:15:16,,,
2019-08-05 21:17:00,-001.80,-000.17,-000.29
2019-08-05 21:18:00,-000.46,0000.21,-000.14
2019-08-05 21:19:00,0000.57,0000.30,0000.01
2019-08-05 21:20:00,0000.36,0000.10,-000.17
2019-08-05 21:21:00,0000.08,-000.31,-000.55
2019-08-05 21:22:00,-000.23,-000.33,-000.53
2019-08-05 21:23:00,,,
2019-08-05 21:23:44,,,
2019-08-05 21:23:45,0000.12,0001.54,-001.32
2019-08-05 21:23:46,-002.40,0003.10,-002.39
2019-08-05 21:23:47,-001.33,0002.21,0000.71
2019-08-05 21:23:48,-000.82,-000.08,0002.13
2019-08-05 21:23:49,-001.67,-000.88,0001.22
2019-08-05 21:23:50,0001.17,-001.91,0001.20
2019-08-05 21:23:51,0001.26,-000.32,0000.17
2019-08-05 21:23:52,0001.42,-000.03,0000.26
2019-08-05 21:23:53,0000.36,-001.22,-000.16
2019-08-05 21:23:54,0000.82,-003.80,0001.21
2019-08-05 21:23:55,0000.34,-001.75,0001.51
2019-08-05 21:23:56,-000.06,0000.69,-000.75
2019-08-05 21:23:57,-003.83,0002.04,-001.25
2019-08-05 21:23:58,0000.77,0003.24,0001.93
2019-08-05 21:23:59,0003.14,-001.14,0002.30
2019-08-05 21:24:00,0001.53,-000.15,-000.15
2019-08-05 21:24:01,-002.32,0000.64,-002.84
2019-08-05 21:24:02,-000.37,0000.66,0000.11
2019-08-05 21:24:03,-001.58,-002.01,0002.26
2019-08-05 21:24:04,-000.69,-002.52,0002.37
2019-08-05 21:24:05,0000.66,-000.16,-000.56
2019-08-05 21:24:06,-002.53,-000.36,-005.15
2019-08-05 21:24:07,0000.46,0001.47,-004.14
2019-08-05 21:24:08,0002.76,0000.53,-001.68
2019-08-05 21:24:09,0000.58,-000.94,0001.60
2019-08-05 21:24:10,-000.70,-001.60,0001.73
2019-08-05 21:24:11,-000.62,0000.04,-000.25
2019-08-05 21:24:12,-001.11,-001.51,-001.62
2019-08-05 21:24:13,0000.00,0000.70,-000.86
2019-08-05 21:24:14,-000.19,0002.12,-000.79
2019-08-05 21:24:15,-000.47,-000.62,-000.82
2019-08-05 21:24:16,0001.75,-002.95,0000.80
2019-08-05 21:24:17,0001.06,-004.21,0000.47
2019-08-05 21:24:18,-000.28,-003.07,-001.14
2019-08-05 21:24:19,0001.54,-000.64,0000.25
2019-08-05 21:24:20,-001.67,-000.28,-000.66
2019-08-05 21:24:21,-005.24,0003.73,-000.53
2019-08-05 21:24:22,-003.25,0002.44,-000.57
2019-08-05 21:24:23,-001.85,0001.47,0000.97
2019-08-05 21:24:24,0001.31,0001.33,0001.29
2019-08-05 21:24:26,0003.54,-003.11,-002.23
2019-08-05 21:24:27,0000.96,-002.67,-000.58
2019-08-05 21:24:28,0000.88,-000.56,-000.85
2019-08-05 21:24:29,-002.00,-002.33,0001.36
2019-08-05 21:24:30,0000.74,0000.91,0000.81
2019-08-05 21:24:31,-000.49,0001.30,0000.63
2019-08-05 21:24:32,-002.36,0001.28,0000.16
2019-08-05 21:24:33,0000.13,0000.15,0000.48
2019-08-05 21:24:34,0001.40,0002.48,-000.44
2019-08-05 21:24:35,0001.51,0000.49,-001.86
2019-08-05 21:24:36,0001.30,0001.71,-001.50
2019-08-05 21:24:37,0000.68,-000.08,-000.21
2019-08-05 21:24:38,0002.07,-001.61,-003.23
2019-08-05 21:24:39,0001.28,0001.20,-000.48
2019-08-05 21:24:40,0000.71,0001.61,-000.18
2019-08-05 21:24:41,-001.75,-000.94,0000.07
2019-08-05 21:24:42,0000.69,-001.76,0001.29
2019-08-05 21:24:43,0002.02,-000.45,0003.81
2019-08-05 21:24:44,0000.75,0000.45,0002.33
2019-08-05 21:24:45,0000.65,-002.76,-000.46
2019-08-05 21:24:46,-001.82,-000.41,0000.18
2019-08-05 21:24:47,-000.56,0001.59,-001.48
2019-08-05 21:24:48,-001.86,-000.42,-003.52
2019-08-05 21:24:49,-003.23,0001.10,-002.84
2019-08-05 21:24:50,-002.56,-000.26,-000.17
2019-08-05 21:24:51,0001.20,-001.56,0001.64
2019-08-05 21:24:52,0001.86,-002.44,-000.44
2019-08-05 21:24:53,-001.97,0001.70,-001.34
2019-08-05 21:24:54,-001.72,0000.73,-002.20
2019-08-05 21:24:55,0003.64,-001.64,-001.74
2019-08-05 21:24:56,0001.31,-001.87,0000.19
2019-08-05 21:24:57,-001.57,-002.42,0002.18
2019-08-05 21:24:58,-000.63,-000.25,0000.94
2019-08-05 21:24:59,-000.36,-000.30,-001.45
2019-08-05 21:25:00,0000.92,-002.20,0000.90
2019-08-05 21:25:01,0001.98,-000.67,0001.08
2019-08-05 21:25:03,0001.18,0001.08,-002.00
2019-08-05 21:25:04,0000.86,0001.42,0002.46
2019-08-05 21:25:05,-001.58,0002.21,-000.01
2019-08-05 21:25:06,-004.69,0001.78,-003.73
2019-08-05 21:25:07,-000.72,0000.15,-004.65
2019-08-05 21:25:09,0001.65,-001.69,-001.47
2019-08-05 21:25:10,0001.12,-003.23,0000.24
2019-08-05 21:25:11,-000.77,-002.88,0002.63
2019-08-05 21:25:12,-001.98,-002.87,0002.67
2019-08-05 21:25:13,-000.99,0001.39,0000.49
2019-08-05 21:25:14,-002.60,0001.43,0001.09
2019-08-05 21:25:15,-000.14,0001.14,-000.45
2019-08-05 21:25:16,0002.32,-002.11,-001.41
2019-08-05 21:25:17,0001.09,-003.04,0000.94
2019-08-05 21:25:18,0006.78,0006.44,0004.94
2019-08-05 21:25:19,0011.23,0012.04,0009.52
2019-08-05 21:25:20,0012.22,0014.45,0011.88
2019-08-05 21:25:21,0009.56,0012.03,0004.62
2019-08-05 21:25:22,0005.71,0003.17,0001.78
2019-08-05 21:25:23,0001.33,-004.35,-001.46
2019-08-05 21:25:24,0002.66,-001.18,-002.71
2019-08-05 21:25:25,0001.32,0002.65,-002.93
2019-08-05 21:25:26,0002.92,0003.14,-003.41
2019-08-05 21:25:27,0000.35,-000.17,-000.33
2019-08-05 21:25:28,0006.11,0002.96,0002.57
2019-08-05 21:25:29,0006.06,0004.08,0003.59
2019-08-05 21:25:30,0002.17,0001.42,0003.49
2019-08-05 21:25:31,0002.84,0002.86,-000.01
2019-08-05 21:25:32,0001.22,0003.20,0005.42
2019-08-05 21:25:33,0005.43,0003.79,0001.70
2019-08-05 21:25:34,0013.22,0002.55,0003.67
2019-08-05 21:25:35,0009.88,0004.22,0004.97
2019-08-05 21:25:36,0012.49,0008.57,0006.15
2019-08-05 21:25:37,0007.26,0006.94,0005.01
2019-08-05 21:25:38,0004.76,0003.21,0004.21
2019-08-05 21:25:39,0006.63,0002.65,0000.83
2019-08-05 21:25:40,0006.55,0001.22,0002.26
2019-08-05 21:25:41,0004.26,-000.34,0007.08
2019-08-05 21:25:42,0003.41,0003.88,0007.48
2019-08-05 21:25:43,0001.33,0005.25,0003.77
2019-08-05 21:25:44,-000.43,0004.68,-003.23
2019-08-05 21:25:45,0004.09,0005.17,-002.35
2019-08-05 21:25:46,0008.28,0008.94,-003.95
2019-08-05 21:25:47,0004.38,0007.57,-000.66
2019-08-05 21:25:48,0006.18,0007.44,0006.25
2019-08-05 21:25:49,0004.38,0000.52,0002.37
2019-08-05 21:25:50,0001.97,0000.47,-003.76
2019-08-05 21:25:51,0001.36,0003.53,-000.49
2019-08-05 21:25:52,0003.11,0000.45,0003.90
2019-08-05 21:25:53,0003.33,0001.54,0002.54
2019-08-05 21:25:54,0005.67,0002.52,0007.13
2019-08-05 21:25:55,0006.76,0001.96,0001.71
2019-08-05 21:25:56,0006.26,0004.83,0001.64
2019-08-05 21:25:57,0007.50,0007.01,0004.51
2019-08-05 21:25:58,0006.28,0008.06,0006.00
2019-08-05 21:25:59,0005.65,0003.84,0007.63
2019-08-05 21:26:00,0003.96,0000.31,0000.75
2019-08-05 21:26:01,0004.37,-000.34,0001.71
2019-08-05 21:26:02,0005.34,0003.60,0001.55
2019-08-05 21:26:03,0005.45,0003.64,0003.26
2019-08-05 21:26:04,0006.27,0008.24,0005.04
2019-08-05 21:26:05,0006.11,0007.24,0001.12
2019-08-05 21:26:06,0007.27,0008.01,0001.60
2019-08-05 21:26:07,0004.85,0007.50,0005.72
2019-08-05 21:26:08,0004.87,0006.39,0001.03
2019-08-05 21:26:09,0002.31,-001.16,0002.90
2019-08-05 21:26:10,0002.43,-003.78,0003.61
2019-08-05 21:26:11,0003.89,-001.41,0002.07
2019-08-05 21:26:12,0004.84,0007.67,0001.75
2019-08-05 21:26:13,0005.51,0007.95,0004.13
2019-08-05 21:26:14,0007.94,0012.69,0006.66
2019-08-05 21:26:15,0005.58,0011.70,0004.10
2019-08-05 21:26:16,0005.33,0005.38,0004.15
2019-08-05 21:26:17,0006.90,-001.57,0002.61
2019-08-05 21:26:18,0003.82,-001.24,0004.45
2019-08-05 21:26:19,0004.68,0000.44,-000.65
2019-08-05 21:26:20,0003.04,0000.68,0000.71
2019-08-05 21:26:21,0003.05,0006.15,0002.22
2019-08-05 21:26:22,0006.91,0007.82,0000.45
2019-08-05 21:26:23,0006.12,0006.12,0002.51
2019-08-05 21:26:24,0006.81,0005.34,0001.14
2019-08-05 21:26:25,0002.98,0002.27,0002.46
2019-08-05 21:26:26,0007.16,0004.93,0000.92
2019-08-05 21:26:27,0007.01,0006.52,0003.16
2019-08-05 21:26:28,0006.18,0001.39,0005.43
2019-08-05 21:26:29,0005.19,0003.46,0008.18
2019-08-05 21:26:30,0005.96,0006.55,0006.16
2019-08-05 21:26:31,0003.33,0005.74,0003.56
2019-08-05 21:26:32,0008.28,0009.77,0004.91
2019-08-05 21:26:33,0009.85,0005.99,0004.84
2019-08-05 21:26:34,0009.46,0004.65,0002.08
2019-08-05 21:26:35,0004.35,0003.10,0001.56
2019-08-05 21:26:36,0006.13,0002.83,0005.92
2019-08-05 21:26:37,0005.60,0002.03,0005.94
2019-08-05 21:26:38,0001.77,0006.86,0005.32
2019-08-05 21:26:39,0002.81,0005.81,0000.62
2019-08-05 21:26:40,0004.89,0005.06,0000.74
2019-08-05 21:26:41,0006.53,0005.24,0003.12
2019-08-05 21:26:42,0009.96,0003.70,0001.98
2019-08-05 21:26:43,0007.70,0005.60,0002.45
2019-08-05 21:26:44,0007.76,0004.15,0002.73
2019-08-05 21:26:45,0003.59,0004.35,0003.14
2019-08-05 21:26:46,0003.81,0006.82,0003.75
2019-08-05 21:26:47,0004.93,0005.50,0003.62
2019-08-05 21:26:48,0003.71,0007.48,0003.21
2019-08-05 21:26:49,0006.13,0003.75,0003.74
2019-08-05 21:26:50,0007.20,0005.58,-000.31
2019-08-05 21:26:51,0006.66,0000.06,-000.32
2019-08-05 21:26:52,0005.43,0000.94,0004.60
2019-08-05 21:26:53,0004.02,0006.49,0004.63
2019-08-05 21:26:54,0007.00,0007.62,0003.28
2019-08-05 21:26:55,-001.02,0002.31,0003.39
2019-08-05 21:26:56,0001.83,0002.16,0002.05
2019-08-05 21:26:57,0003.54,0004.72,0004.68
2019-08-05 21:26:58,0004.52,0000.48,0004.47
2019-08-05 21:26:59,0008.32,0001.05,0004.09
2019-08-05 21:27:00,0009.12,0003.82,0001.38
2019-08-05 21:27:01,0006.29,0001.08,-001.41
2019-08-05 21:27:02,0005.86,0003.91,-000.28
2019-08-05 21:27:03,0004.88,0006.35,0000.39
2019-08-05 21:27:04,0005.75,0007.52,0001.82
2019-08-05 21:27:05,0006.86,0005.57,0008.02
2019-08-05 21:27:06,0006.83,0002.89,0008.55
2019-08-05 21:27:07,0003.61,0002.88,0008.62
2019-08-05 21:27:08,0006.09,0002.84,0005.28
2019-08-05 21:27:09,0005.07,0001.57,0003.33
2019-08-05 21:27:10,0000.63,0000.39,-002.91
2019-08-05 21:27:11,0001.81,0003.79,0000.30
2019-08-05 21:27:12,0006.28,0009.43,0004.81
2019-08-05 21:27:13,0008.69,0005.41,0003.93
2019-08-05 21:27:14,0005.12,0008.61,0001.12
2019-08-05 21:27:15,0005.61,0007.11,0000.85
2019-08-05 21:27:16,0003.50,0007.73,0001.82
2019-08-05 21:27:17,0007.16,0007.22,0005.02
2019-08-05 21:27:18,0004.42,0002.56,0007.16
2019-08-05 21:27:19,0001.91,0004.20,0003.91
2019-08-05 21:27:20,0005.34,0001.91,0002.25
2019-08-05 21:27:21,0007.33,0002.25,0000.63
2019-08-05 21:27:22,0010.17,0004.28,-003.19
2019-08-05 21:27:23,0008.63,0003.33,0001.13
2019-08-05 21:27:24,0003.25,0003.61,0004.02
2019-08-05 21:27:25,0004.06,0003.47,0000.95
2019-08-05 21:27:26,0006.97,0003.63,0003.65
2019-08-05 21:27:27,0006.93,0007.99,0007.64
2019-08-05 21:27:28,0004.26,0003.02,0004.11
2019-08-05 21:27:29,0005.95,0003.79,0001.82
2019-08-05 21:27:30,0008.39,0007.74,0001.28
2019-08-05 21:27:31,0006.78,0005.48,0000.63
2019-08-05 21:27:32,0004.66,0002.19,0002.62
2019-08-05 21:27:33,0003.07,0002.36,0001.18
2019-08-05 21:27:34,0005.21,0009.73,0004.75
2019-08-05 21:27:35,0005.80,0009.26,0006.25
2019-08-05 21:27:36,0004.39,0004.91,0004.54
2019-08-05 21:27:37,0005.33,0005.63,0002.60
2019-08-05 21:27:38,0002.54,0002.13,0003.96
2019-08-05 21:27:39,0005.90,0003.13,0005.74
2019-08-05 21:27:40,0007.95,0006.11,0004.63
2019-08-05 21:27:41,0005.20,0005.63,0001.40
2019-08-05 21:27:42,0005.03,0003.39,0003.81
2019-08-05 21:27:43,0002.70,0003.83,0003.35
2019-08-05 21:27:44,0005.85,0001.74,0006.73
2019-08-05 21:27:45,0006.69,0005.94,0004.56
2019-08-05 21:27:46,0005.96,0007.17,0004.54
2019-08-05 21:27:47,0010.94,0003.49,0004.93
2019-08-05 21:27:48,0005.82,0003.74,0005.15
2019-08-05 21:27:49,0007.17,0002.27,0005.59
2019-08-05 21:27:50,0006.44,0007.17,0004.50
2019-08-05 21:27:51,0005.68,0002.75,-000.94
2019-08-05 21:27:52,0006.59,0004.63,0001.43
2019-08-05 21:27:53,0005.47,0002.00,0002.09
2019-08-05 21:27:54,0005.76,0009.52,0000.92
2019-08-05 21:27:55,0005.57,0009.48,0002.30
2019-08-05 21:27:56,0004.50,0005.88,0001.17
2019-08-05 21:27:57,0000.24,0009.47,0003.87
2019-08-05 21:27:58,0007.12,0002.60,0006.22
2019-08-05 21:27:59,0005.63,0001.98,0003.97
2019-08-05 21:28:00,0006.15,0001.67,0003.54
2019-08-05 21:28:01,0000.31,0001.97,-000.10
2019-08-05 21:28:02,0003.36,0002.21,0003.54
2019-08-05 21:28:03,0006.81,0004.23,0005.07
2019-08-05 21:28:04,0004.93,0006.96,0005.46
2019-08-05 21:28:05,0005.17,0005.45,0002.69
2019-08-05 21:28:06,0007.53,0002.98,0004.29
2019-08-05 21:28:07,0010.23,-000.38,0004.47
2019-08-05 21:28:08,0006.65,0003.91,0002.01
2019-08-05 21:28:09,0004.19,0006.72,0001.53
2019-08-05 21:28:10,0006.30,0006.69,0003.26
2019-08-05 21:28:11,0003.44,0005.31,0004.46
2019-08-05 21:28:12,0004.82,0005.13,0008.09
2019-08-05 21:28:13,0007.65,0004.68,0003.15
2019-08-05 21:28:14,0008.60,0007.59,-000.62
2019-08-05 21:28:15,0005.21,0006.45,0001.96
2019-08-05 21:28:16,0006.17,0006.85,0001.93
2019-08-05 21:28:17,0007.26,0004.45,0004.01
2019-08-05 21:28:18,0005.02,0001.34,0002.49
2019-08-05 21:28:19,0000.93,0005.06,-000.82
2019-08-05 21:28:20,0004.01,0009.21,0002.13
2019-08-05 21:28:21,0005.60,0003.15,0002.44
2019-08-05 21:28:22,0006.07,0003.52,0006.24
2019-08-05 21:28:23,0004.61,0000.48,0003.31
2019-08-05 21:28:24,0005.74,0003.34,0006.77
2019-08-05 21:28:25,0004.90,0005.36,0005.00
2019-08-05 21:28:26,0005.34,0007.91,0004.99
2019-08-05 21:28:27,0005.83,0005.71,0004.73
2019-08-05 21:28:28,0006.49,0006.00,0003.52
2019-08-05 21:28:29,0004.05,0007.67,0001.35
2019-08-05 21:28:30,0003.42,0004.27,0001.93
2019-08-05 21:28:31,0005.30,0005.85,0004.37
2019-08-05 21:28:32,0005.58,0003.54,0005.19
2019-08-05 21:28:33,0005.42,0007.89,0006.07
2019-08-05 21:28:34,0009.54,0006.23,0001.65
2019-08-05 21:28:35,0006.08,0006.78,-001.39
2019-08-05 21:28:36,0004.44,0003.75,0000.62
2019-08-05 21:28:37,0003.00,0003.38,0001.75
2019-08-05 21:28:38,0007.27,-000.46,0002.20
2019-08-05 21:28:39,0010.65,0000.41,0003.96
2019-08-05 21:28:40,0005.70,0001.60,0005.64
2019-08-05 21:28:41,0003.55,0005.03,0006.77
2019-08-05 21:28:42,0003.10,0005.90,0001.51
2019-08-05 21:28:43,0005.11,0001.72,0003.71
2019-08-05 21:28:44,0006.11,0004.92,0003.56
2019-08-05 21:28:45,0003.90,0003.57,0005.86
2019-08-05 21:28:46,0004.95,0006.49,0003.94
2019-08-05 21:28:47,0005.67,0006.12,0004.33
2019-08-05 21:28:48,0008.33,0004.04,0003.72
2019-08-05 21:28:49,0003.36,0002.48,0002.53
2019-08-05 21:28:50,0005.75,0002.36,0004.37
2019-08-05 21:28:51,0007.45,0003.18,0005.86
2019-08-05 21:28:52,0003.98,0007.24,0001.43
2019-08-05 21:28:53,0006.52,0008.56,0005.94
2019-08-05 21:28:54,0008.32,0005.97,0004.32
2019-08-05 21:28:55,0006.56,0004.61,0003.67
2019-08-05 21:28:56,0009.87,0004.66,0003.65
2019-08-05 21:28:57,0009.35,0006.56,0001.50
2019-08-05 21:28:58,0006.86,0005.09,0000.68
2019-08-05 21:28:59,0007.44,0007.10,0004.35
2019-08-05 21:29:00,0006.29,0007.05,0001.01
2019-08-05 21:29:01,0010.91,0008.22,0007.55
2019-08-05 21:29:02,0010.00,0009.45,0009.76
2019-08-05 21:29:03,0007.16,0010.15,0006.22
2019-08-05 21:29:04,0007.69,0007.00,0001.67
2019-08-05 21:29:05,0009.21,0005.36,0003.54
2019-08-05 21:29:06,0007.00,0006.30,0008.29
2019-08-05 21:29:07,0008.62,0009.96,0006.70
2019-08-05 21:29:08,0007.45,0012.34,0007.94
2019-08-05 21:29:09,0011.46,0009.66,0005.31
2019-08-05 21:29:10,0013.53,0010.25,0004.75
2019-08-05 21:29:11,0007.88,0009.99,0000.24
2019-08-05 21:29:12,0010.08,0012.39,0009.18
2019-08-05 21:29:13,0014.92,0010.97,0012.31
2019-08-05 21:29:14,0011.70,0007.45,0010.00
2019-08-05 21:29:15,0010.57,0005.42,0010.00
2019-08-05 21:29:16,0009.96,0007.81,0006.90
2019-08-05 21:29:17,0012.62,0010.12,0009.66
2019-08-05 21:29:18,0008.31,0008.38,0008.91
2019-08-05 21:29:19,0010.76,0009.15,0010.29
2019-08-05 21:29:20,0013.72,0004.50,0005.74
2019-08-05 21:29:21,0008.29,0005.71,0002.75
2019-08-05 21:29:22,0010.01,0013.02,0006.54
2019-08-05 21:29:23,0010.72,0012.87,0007.00
2019-08-05 21:29:24,0009.79,0012.54,0006.14
2019-08-05 21:29:25,0009.58,0009.89,0006.63
2019-08-05 21:29:26,0010.87,0010.65,0006.87
2019-08-05 21:29:27,0009.88,0008.38,0004.23
2019-08-05 21:29:28,0005.97,0000.17,0004.51
2019-08-05 21:29:29,0009.46,0001.20,0005.07
2019-08-05 21:29:30,0012.48,0009.69,0004.81
2019-08-05 21:29:31,0007.88,0005.84,0005.47
2019-08-05 21:29:32,0006.85,0008.83,0010.03
2019-08-05 21:29:33,0009.99,0008.33,0007.03
2019-08-05 21:29:34,0007.37,0006.95,0001.85
2019-08-05 21:29:35,0009.73,0005.76,0006.53
2019-08-05 21:29:36,0004.77,0006.88,0004.91
2019-08-05 21:29:37,0006.28,0003.61,0003.73
2019-08-05 21:29:38,0008.44,0005.27,0004.85
2019-08-05 21:29:39,0011.40,0006.31,0003.91
2019-08-05 21:29:40,0004.90,0004.88,0002.75
2019-08-05 21:29:41,0001.73,0002.81,0004.45
2019-08-05 21:29:42,0005.13,0007.06,0006.70
2019-08-05 21:29:43,0007.76,0006.71,0005.81
2019-08-05 21:29:44,0008.84,0008.98,0006.12
2019-08-05 21:29:45,0005.48,0007.73,0004.28
2019-08-05 21:29:46,0002.84,0008.81,0000.35
2019-08-05 21:29:47,0000.04,0007.10,0001.87
2019-08-05 21:29:48,0005.32,0000.40,0002.91
2019-08-05 21:29:49,0010.90,0004.39,0003.20
2019-08-05 21:29:50,0012.09,0006.40,0006.50
2019-08-05 21:29:51,0006.78,0006.21,0007.64
2019-08-05 21:29:52,0006.53,0005.20,0003.96
2019-08-05 21:29:53,0007.53,0004.61,0004.20
2019-08-05 21:29:54,0004.70,0006.52,0004.86
2019-08-05 21:29:55,0007.10,0005.26,0004.39
2019-08-05 21:29:56,0007.15,0005.79,0001.38
2019-08-05 21:29:57,0004.86,0002.68,0001.74
2019-08-05 21:29:58,0005.97,0004.03,0001.49
2019-08-05 21:29:59,0007.01,0006.46,0000.36
2019-08-05 21:30:00,0002.73,0002.97,0000.99
2019-08-05 21:30:01,0004.26,0005.30,0003.34
2019-08-05 21:30:02,0004.72,0003.72,0007.14
2019-08-05 21:30:03,0005.50,0004.14,0004.08
2019-08-05 21:30:04,0004.60,0008.87,0005.26
2019-08-05 21:30:05,0003.96,0003.23,0003.28
2019-08-05 21:30:06,0009.36,0000.88,0002.45
2019-08-05 21:30:07,0004.94,0002.89,0001.19
2019-08-05 21:30:08,0004.49,0004.59,0004.39
2019-08-05 21:30:09,0003.40,0006.79,0001.54
2019-08-05 21:30:10,0007.38,0002.68,0004.06
2019-08-05 21:30:11,0005.73,0002.48,0000.16
2019-08-05 21:30:12,0005.14,0002.05,0001.47
2019-08-05 21:30:13,0003.95,0008.19,0004.32
2019-08-05 21:30:14,-000.25,0007.65,0009.12
2019-08-05 21:30:15,0006.59,0005.64,0004.21
2019-08-05 21:30:16,0007.90,0002.09,0004.62
2019-08-05 21:30:17,0005.10,0000.51,0006.60
2019-08-05 21:30:18,0006.46,0003.61,0001.29
2019-08-05 21:30:19,0002.86,0004.48,-001.25
2019-08-05 21:30:20,0004.24,0011.14,-000.23
2019-08-05 21:30:21,0006.42,0002.36,0000.67
2019-08-05 21:30:22,0003.02,-000.40,0003.64
2019-08-05 21:30:23,0005.26,-000.59,0005.65
2019-08-05 21:30:24,0004.82,0000.91,0002.80
2019-08-05 21:30:25,0006.34,0004.29,0002.48
2019-08-05 21:30:26,0003.72,0001.69,0000.87
2019-08-05 21:30:27,0002.57,0006.11,-001.17
2019-08-05 21:30:28,0002.64,0007.07,0004.12
2019-08-05 21:30:29,0006.48,0007.80,0003.39
2019-08-05 21:30:30,0002.43,0004.11,0002.17
2019-08-05 21:30:31,0000.82,0005.30,0005.83
2019-08-05 21:30:32,-000.01,0003.01,0003.47
2019-08-05 21:30:33,0005.98,-001.93,0004.95
2019-08-05 21:30:34,0006.51,0002.18,0003.56
2019-08-05 21:30:35,0005.27,0002.33,0001.46
2019-08-05 21:30:36,0002.83,0003.69,0002.96
2019-08-05 21:30:37,0001.79,0005.68,-000.43
2019-08-05 21:30:38,0002.71,0005.43,0003.44
2019-08-05 21:30:39,0005.02,0001.03,0003.91
2019-08-05 21:30:40,0001.51,0002.57,0001.64
2019-08-05 21:30:41,0003.29,0004.36,0001.11
2019-08-05 21:30:42,0005.04,0006.76,-001.98
2019-08-05 21:30:43,0004.56,0004.42,0001.34
2019-08-05 21:30:44,0008.58,0004.21,0006.55
2019-08-05 21:30:45,0004.84,0003.94,0004.27
2019-08-05 21:30:46,0003.90,0003.02,0003.71
2019-08-05 21:30:47,0004.27,0004.51,0001.06
2019-08-05 21:30:48,0001.06,0006.24,-000.92
2019-08-05 21:30:49,0002.91,0003.16,0001.96
2019-08-05 21:30:50,0005.83,0003.50,0002.14
2019-08-05 21:30:51,0005.77,0003.70,0000.81
2019-08-05 21:30:52,0007.05,0003.73,0005.00
2019-08-05 21:30:53,0005.35,0005.09,0003.50
2019-08-05 21:30:54,0005.67,0006.95,0004.49
2019-08-05 21:30:55,0006.94,0004.95,0004.16
2019-08-05 21:30:56,0004.87,0001.83,0004.83
2019-08-05 21:30:57,0007.41,0006.14,0002.82
2019-08-05 21:30:58,0002.67,0006.17,0003.63
2019-08-05 21:30:59,-000.13,0005.84,0002.06
2019-08-05 21:31:00,0005.08,0009.58,0003.95
2019-08-05 21:31:01,0008.73,0005.71,0009.66
2019-08-05 21:31:02,0003.20,0002.71,0003.69
2019-08-05 21:31:03,-000.84,-000.31,0000.93
2019-08-05 21:31:04,0004.41,-000.61,0005.25
2019-08-05 21:31:05,0011.22,0002.94,0006.00
2019-08-05 21:31:06,0011.74,0004.93,0000.93
2019-08-05 21:31:07,0006.40,0005.89,-005.25
2019-08-05 21:31:08,0004.81,0004.50,0000.21
2019-08-05 21:31:09,0001.04,0003.52,0001.36
2019-08-05 21:31:10,0001.66,0001.04,0004.63
2019-08-05 21:31:11,0002.88,-000.98,0004.54
2019-08-05 21:31:12,0002.04,0001.02,0004.09
2019-08-05 21:31:13,0001.53,0006.06,0002.48
2019-08-05 21:31:14,0001.71,0003.14,0005.10
2019-08-05 21:31:15,0003.56,0006.06,0003.35
2019-08-05 21:31:16,0003.93,0003.19,-000.63
2019-08-05 21:31:17,0006.48,0004.68,0000.20
2019-08-05 21:31:18,0007.63,0003.84,0003.92
2019-08-05 21:31:19,0008.02,0001.06,0002.58
2019-08-05 21:31:20,0006.81,-000.02,0003.07
2019-08-05 21:31:21,0007.58,0005.15,0005.58
2019-08-05 21:31:22,0003.53,0005.76,0003.90
2019-08-05 21:31:23,0002.50,0001.79,0001.06
2019-08-05 21:31:24,0003.03,0000.69,0003.41
2019-08-05 21:31:25,0006.97,0004.23,0005.53
2019-08-05 21:31:26,0005.15,0003.44,0000.01
2019-08-05 21:31:27,0003.67,0004.04,-000.29
2019-08-05 21:31:28,0005.19,0006.61,0002.17
2019-08-05 21:31:29,0004.66,0006.04,0005.99
2019-08-05 21:31:30,0006.74,0005.02,0006.70
2019-08-05 21:31:31,0003.31,0003.30,0003.13
2019-08-05 21:31:32,0002.68,0001.31,0003.12
2019-08-05 21:31:33,0004.76,0005.44,0003.51
2019-08-05 21:31:34,0009.04,0004.30,-000.28
2019-08-05 21:31:35,0008.99,0007.19,0002.97
2019-08-05 21:31:36,0004.54,0004.03,0004.45
2019-08-05 21:31:37,0002.69,0002.20,0000.48
2019-08-05 21:31:38,0003.57,0001.95,0000.98
2019-08-05 21:31:39,-001.06,0002.85,-000.18
2019-08-05 21:31:40,0002.15,0004.92,0003.50
2019-08-05 21:31:41,0001.27,0005.93,0004.62
2019-08-05 21:31:42,0005.77,0004.01,0006.31
2019-08-05 21:31:43,0003.95,0002.22,0005.07
2019-08-05 21:31:44,0004.69,0000.93,0003.98
2019-08-05 21:31:45,0009.89,0003.98,0002.11
2019-08-05 21:31:46,0007.30,0007.22,0001.88
2019-08-05 21:31:47,0004.32,0008.15,0002.00
2019-08-05 21:31:48,0006.57,0004.64,0006.76
2019-08-05 21:31:49,0007.32,0002.40,0006.34
2019-08-05 21:31:50,0005.72,0005.14,0001.52
2019-08-05 21:31:51,0009.31,0003.46,-000.73
2019-08-05 21:31:52,0002.31,0006.40,0000.34
2019-08-05 21:31:53,0004.64,0003.37,0002.89
2019-08-05 21:31:54,0003.37,0004.51,0006.32
2019-08-05 21:31:55,0002.76,0005.35,0005.99
2019-08-05 21:31:56,0005.26,0009.25,0003.67
2019-08-05 21:31:57,0005.93,0006.93,0000.02
2019-08-05 21:31:58,0006.06,0007.90,0001.68
2019-08-05 21:31:59,0004.46,0006.65,-000.78
2019-08-05 21:32:00,0004.16,0002.42,0002.13
2019-08-05 21:32:01,0004.69,0003.09,0003.05
2019-08-05 21:32:02,0001.61,0003.14,0003.86
2019-08-05 21:32:03,0004.46,0004.25,0003.56
2019-08-05 21:32:04,0006.14,0007.17,0002.03
2019-08-05 21:32:05,0006.05,0004.09,0003.10
2019-08-05 21:32:06,0006.77,0001.73,0001.66
2019-08-05 21:32:07,0007.52,0005.62,0004.98
2019-08-05 21:32:08,0002.59,0002.13,-001.00
2019-08-05 21:32:09,-000.54,0003.98,0002.45
2019-08-05 21:32:10,0001.49,0006.25,0003.29
2019-08-05 21:32:11,0003.19,0002.16,0002.33
2019-08-05 21:32:12,0008.39,0001.23,0003.52
2019-08-05 21:32:13,0009.37,0000.45,0006.65
2019-08-05 21:32:14,0002.99,0004.35,0002.21
2019-08-05 21:32:15,0002.15,0004.02,-000.09
2019-08-05 21:32:16,0007.15,0000.67,0003.72
2019-08-05 21:32:17,0005.74,0001.60,-000.07
2019-08-05 21:32:18,0004.74,0003.87,0003.76
2019-08-05 21:32:19,0004.49,0006.31,0001.30
2019-08-05 21:32:20,0008.70,0007.46,0002.81
2019-08-05 21:32:21,0004.87,0003.39,0004.11
2019-08-05 21:32:22,0004.62,0002.24,0007.87
2019-08-05 21:32:23,0004.38,-000.91,0005.43
2019-08-05 21:32:24,0006.70,0003.06,0003.11
2019-08-05 21:32:25,0005.63,0005.69,-000.04
2019-08-05 21:32:26,0002.29,0004.93,0001.16
2019-08-05 21:32:27,0003.58,0006.53,0003.14
2019-08-05 21:32:28,0009.07,0004.81,0004.75
2019-08-05 21:32:29,0009.17,0002.79,0006.76
2019-08-05 21:32:30,0004.86,0002.70,0003.83
2019-08-05 21:32:31,0003.40,0005.91,0003.06
2019-08-05 21:32:32,0006.78,0009.82,0004.03
2019-08-05 21:32:33,0005.48,0007.69,0003.92
2019-08-05 21:32:34,0003.46,0006.63,0005.01
2019-08-05 21:32:35,0004.26,0005.90,0003.12
2019-08-05 21:32:36,0003.20,0001.99,-002.83
2019-08-05 21:32:37,0007.12,0003.36,0002.15
2019-08-05 21:32:38,0002.18,0005.40,0002.02
2019-08-05 21:32:39,0004.52,0004.65,0001.17
2019-08-05 21:32:40,0003.23,0002.30,0005.69
2019-08-05 21:32:41,0007.41,0004.68,0005.85
2019-08-05 21:32:42,0008.59,0006.29,0005.75
2019-08-05 21:32:43,0006.58,0003.68,0005.12
2019-08-05 21:32:44,0010.57,0002.00,0002.04